Location: Unspecified
(51.6250°N, 0.8230°E)
Time: 11:33:38
(UTC+01:00)

Resurs 1-4 Rocket - Visible Passes

Search period start: 27 June 2017 00:00
Search period end: 07 July 2017 00:00
Orbit: 801 x 813 km, 98.5° (Epoch: 26 June)

Date Brightness Start Highest point End Pass type
(mag) Time Alt. Az. Time Alt. Az. Time Alt. Az.
27 Jun 3.6 02:31:47 10° NNE 02:36:24 29° E 02:40:59 10° SSE visible
28 Jun 4.2 02:07:47 10° NE 02:11:32 19° E 02:15:17 10° SE visible
28 Jun 2.2 03:46:39 10° NNE 03:52:00 77° WNW 03:57:18 10° SSW visible
29 Jun 4.5 01:44:33 10° ENE 01:46:36 12° E 01:48:39 10° ESE visible
29 Jun 2.4 03:22:05 10° NNE 03:27:26 71° ESE 03:32:43 10° S visible
30 Jun 3.0 02:57:37 10° NNE 03:02:45 46° E 03:07:50 10° S visible
01 Jul 3.6 02:33:20 10° NNE 02:38:01 30° E 02:42:38 10° SSE visible
02 Jul 4.1 02:09:19 10° NE 02:13:10 20° E 02:16:59 10° SE visible
02 Jul 2.2 03:48:15 10° NNE 03:53:36 75° WNW 03:58:53 10° SSW visible
03 Jul 4.5 01:45:58 10° ENE 01:48:13 13° E 01:50:27 10° ESE visible
03 Jul 2.3 03:23:41 10° NNE 03:29:01 73° ESE 03:34:19 10° S visible
04 Jul 2.9 02:59:13 10° NNE 03:04:22 47° E 03:09:28 10° S visible
05 Jul 3.5 02:34:55 10° NNE 02:39:37 31° E 02:44:18 10° SSE visible
06 Jul 4.1 02:10:52 10° NE 02:14:47 20° E 02:18:40 10° SE visible
06 Jul 2.2 03:49:52 10° NNE 03:55:11 73° WNW 04:00:28 10° SSW visible
